Dewpoint
35 24 21 16 17 14 15 16 13 9 11 11 15 15 12 12 11 12 13 29 28 26 21 18 16 10 11 10 11 12 13 14 14 15 15 17 17 17 17 17 17 16 16 20 19 17 17 17 16 17 17 18 19 19 20 21 23 25 25 28 31 32 35 37 41 42 49 48 49 47 47 46 46 45 43 42 42 40 39 39 41 42 39 38 36 37
33 19 19 23 14 11 10 12 15 13 14 15 15 16 13 16 11 11 10 26 31 24 17 14 10 7 5 10 11 12 14 14 14 15 15 16 17 18 18 18 17 16 19 18 17 17 16 15 16 15 14 18 15 17 18 19 21 21 22 25 26 28 29 31 34 40 41 44 48 47 47 46 45 45 44 42 41 41 40 40 39 39 38 36 38 38
25 21 24 15 14 14 13 13 12 14 20 20 16 15 16 12 16 13 32 26 26 26 15 13 11 8 9 11 13 14 15 16 16 16 16 17 18 18 18 17 16 15 14 14 15 16 15 16 16 15 13 12 13 14 14 16 18 19 20 21 24 25 26 27 27 33 38 42 44 49 47 47 45 45 45 44 44 42 41 41 41 40 39 39 37 36
15 26 12 14 16 16 11 17 16 18 21 19 17 16 14 18 17 14 18 23 22 20 15 13 11 9 11 12 13 15 16 17 18 18 19 19 18 17 16 16 14 13 13 13 13 14 14 14 14 14 14 13 14 13 13 13 14 16 18 17 21 22 23 24 27 30 32 37 40 46 47 48 45 43 44 46 44 40 40 40 39 39 41 41 40 37
13 11 12 20 23 13 14 16 17 17 15 21 21 16 12 17 15 15 9 11 16 16 16 11 11 12 13 12 13 15 17 16 18 17 18 19 20 19 18 17 16 14 15 14 14 14 15 14 14 14 16 15 14 14 13 13 13 14 15 15 16 19 19 21 24 26 29 33 34 39 41 44 44 43 44 43 42 41 40 39 38 37 39 39 40 40
18 20 20 22 17 15 17 17 20 20 11 8 18 22 15 14 12 11 11 11 6 4 15 18 9 9 13 12 13 14 15 15 16 16 16 16 17 18 16 17 18 18 18 16 15 16 16 16 16 16 16 15 15 15 14 14 15 15 16 15 14 15 16 17 18 24 27 30 32 34 34 35 37 38 38 39 42 42 41 39 37 37 38 37 36 36
19 22 21 23 17 20 22 19 24 20 11 9 10 21 22 14 15 14 12 13 8 3 11 23 2 1 12 10 13 15 15 15 15 15 14 15 15 16 16 16 16 16 17 17 16 16 16 16 17 16 16 16 16 16 15 15 15 16 17 16 15 14 15 14 15 16 24 27 30 32 32 35 34 34 36 39 41 44 42 41 41 39 38 36 37 36
28 23 18 23 18 17 15 13 20 14 14 6 19 22 21 17 14 13 13 11 6 11 12 12 8 2 2 6 14 15 15 14 13 14 14 14 13 14 14 15 15 16 16 17 16 15 15 16 16 16 16 16 17 17 17 15 15 15 16 17 16 15 15 14 14 14 16 21 25 27 28 30 32 32 33 36 38 40 43 42 42 40 39 37 37 37
25 24 23 23 20 12 12 18 20 21 14 6 22 25 19 17 15 14 12 9 8 6 6 3 15 4 4 9 14 15 13 13 13 13 14 14 14 13 13 13 13 14 15 15 16 15 14 14 15 15 14 14 16 17 17 15 14 14 15 15 16 15 14 14 13 14 13 16 17 21 22 25 29 30 31 32 34 36 38 39 41 38 39 37 36 36
27 21 24 21 19 10 23 12 16 22 14 21 23 22 21 20 19 18 13 10 9 6 6 3 6 1 -2 13 13 14 13 13 13 14 15 14 13 13 14 14 14 14 15 16 16 16 15 15 15 15 15 14 14 15 17 16 14 14 14 14 14 15 14 14 13 12 12 12 13 13 15 19 20 24 29 31 32 33 34 35 36 38 36 36 37 37
22 29 28 23 20 21 15 13 18 17 17 22 16 15 14 14 12 14 16 13 9 8 7 8 7 3 0 10 12 11 14 14 14 15 15 14 13 14 14 14 14 14 15 15 15 17 16 16 16 16 15 15 14 14 15 15 13 12 12 12 11 14 14 13 13 12 12 11 11 11 12 14 15 18 23 24 28 31 31 33 33 35 36 36 34 35
27 30 25 25 28 27 21 18 23 24 24 21 13 7 6 4 1 -1 -2 12 6 4 5 6 5 14 3 5 13 15 15 15 14 14 14 14 14 15 15 15 13 13 15 16 16 17 18 18 17 16 16 16 15 14 14 14 15 13 11 10 8 10 14 13 13 11 10 11 10 10 11 12 12 13 17 19 23 28 29 30 32 33 34 35 36 34
5 16 25 31 25 23 22 13 7 24 23 19 11 1 -1 0 1 -1 -4 -3 -1 2 3 -3 6 -1 -6 12 14 14 14 14 16 16 15 14 14 15 15 14 14 14 12 15 17 18 18 17 17 16 16 16 15 14 13 14 15 14 12 10 7 8 10 12 12 10 10 9 9 9 10 10 13 12 14 15 18 22 27 29 29 30 31 33 34 35
5 25 21 28 23 26 20 4 3 1 -2 1 -3 0 3 1 -1 -4 -5 -2 -3 -3 -2 -5 6 -6 11 11 12 12 12 14 15 15 16 15 15 15 15 15 14 15 13 13 15 16 17 18 16 15 15 14 14 13 12 13 16 14 11 10 8 7 9 10 10 10 9 8 8 8 9 9 9 9 12 12 14 15 17 21 24 27 30 31 32 34
3 -1 13 9 6 23 18 9 12 8 7 4 10 5 8 5 -2 -3 -2 -3 -2 -2 -5 -3 -2 -4 1 12 12 12 13 14 15 15 15 16 16 16 16 14 12 14 13 13 12 14 15 16 15 15 14 14 13 13 13 12 12 15 11 11 7 6 8 9 9 8 8 8 7 7 8 9 8 9 9 9 14 14 15 16 17 18 26 30 32 33
7 0 7 19 11 10 12 21 22 15 9 6 12 10 3 7 4 2 2 1 -1 -2 -3 -0 -1 10 10 12 13 14 11 11 12 12 13 12 13 13 13 14 12 13 13 12 11 12 12 13 15 15 13 12 12 12 13 12 13 14 12 10 7 7 8 9 10 8 7 6 6 8 7 7 8 10 8 9 11 13 15 16 17 17 18 22 30 33
4 -1 13 7 12 12 10 22 20 17 6 3 1 4 2 10 4 5 2 -1 -3 -1 -2 3 -4 9 10 11 11 11 11 11 11 11 11 11 10 11 9 10 10 12 12 11 11 10 9 10 13 14 12 11 10 10 11 11 11 11 10 9 7 6 7 9 9 7 6 5 4 7 7 6 6 6 7 8 9 10 12 14 15 17 17 18 18 22
8 1 6 7 2 11 16 17 17 18 14 10 7 5 15 12 9 5 -1 1 1 -2 -2 -1 1 4 6 6 12 12 11 11 11 13 12 11 11 11 10 11 11 11 12 10 9 9 9 10 11 13 12 10 8 9 9 10 10 11 10 7 6 5 6 7 8 8 6 4 5 7 5 4 5 7 7 7 8 10 10 11 14 16 17 18 18 20
11 7 3 6 6 5 18 21 16 21 24 12 4 22 9 7 6 4 5 0 -0 -0 1 4 9 10 11 11 13 12 12 13 14 14 13 10 10 10 7 9 9 10 10 6 6 9 9 10 9 11 10 9 8 9 9 12 11 10 8 8 6 6 6 6 8 7 6 4 9 9 6 4 5 7 7 8 10 9 10 11 13 14 17 18 19 21
17 10 5 9 1 1 -1 4 -1 -4 10 24 20 15 15 7 10 9 9 9 8 5 3 4 4 7 11 12 13 12 13 13 13 13 13 10 8 8 7 8 8 6 6 4 3 2 3 5 8 10 10 9 10 9 10 10 10 7 8 6 5 6 3 4 5 5 4 5 6 6 4 4 6 7 6 7 6 8 9 11 12 13 14 17 19 19
13 7 5 -0 5 8 1 -3 -5 0 8 7 6 10 15 15 16 14 12 13 8 3 1 2 -1 7 12 14 12 13 13 13 13 13 13 13 11 10 9 9 8 7 4 3 2 0 -0 -1 3 8 9 10 10 9 9 9 6 6 6 5 4 3 2 2 3 5 6 5 4 5 4 4 7 5 6 7 7 7 9 9 11 10 13 16 17 18
11 6 5 3 4 3 -0 -1 1 8 5 4 5 13 14 14 11 7 5 11 9 4 3 2 -0 8 13 15 13 13 14 15 15 15 14 14 10 9 6 4 4 4 3 2 1 -1 -0 -0 0 4 7 9 7 6 3 5 4 2 2 4 3 2 2 2 3 3 4 4 5 4 4 5 5 4 7 7 7 7 6 6 7 9 13 14 16 18
14 12 7 8 4 -2 -5 -0 17 12 8 7 4 7 15 15 12 7 3 5 7 7 8 5 1 6 12 16 16 15 15 15 14 14 10 8 6 3 3 3 2 2 1 2 1 0 -0 0 1 2 4 3 -0 1 2 2 1 -1 0 1 2 2 2 1 1 2 4 4 4 4 4 5 5 5 6 5 5 4 5 5 8 11 14 15 17 18
21 14 7 2 1 4 4 10 2 9 8 5 4 10 15 13 12 11 9 9 7 6 3 3 -0 2 12 18 18 15 14 13 10 5 4 3 3 1 0 0 0 0 -0 -1 -1 -1 -1 -2 -1 -1 1 1 0 0 0 0 -1 -1 0 1 1 1 1 1 1 2 2 3 3 3 4 4 5 7 7 5 4 4 6 8 10 13 14 15 16 17
10 10 9 7 6 3 -1 0 6 9 8 3 4 12 13 14 14 11 11 10 3 4 2 -0 -7 3 11 15 17 11 7 7 5 4 2 1 1 0 -0 0 -0 -0 0 0 0 -2 -3 -3 -2 -1 2 4 3 2 2 2 1 0 1 1 1 2 2 1 2 1 1 2 3 4 5 6 7 7 6 5 5 6 8 9 11 13 14 15 16 16
19 13 11 7 2 1 1 2 3 2 4 3 6 11 11 10 9 8 4 5 0 4 3 -1 -1 5 6 11 7 7 7 5 4 3 2 1 0 -0 -0 -1 -1 -1 -0 0 0 0 0 0 -0 1 3 5 5 5 4 3 3 2 1 1 2 2 2 2 2 1 3 3 5 5 8 9 8 7 6 6 8 8 10 11 11 13 13 13 14 13
15 14 10 8 10 10 11 8 3 5 3 3 11 9 8 9 9 7 5 2 1 5 1 -0 1 1 0 0 1 2 6 4 3 2 1 0 -0 -0 -0 -1 -1 -1 -1 -0 1 1 1 2 2 4 6 7 7 6 5 4 4 3 3 2 2 2 3 4 4 5 5 5 5 9 9 9 8 8 8 9 10 11 11 11 11 11 11 11 11 10
14 11 9 12 12 10 7 3 1 3 -1 -0 7 6 6 7 7 5 6 3 7 3 -4 0 1 -0 -1 -1 -0 2 4 3 2 1 1 1 1 0 -2 -3 4 -3 -3 -2 -1 1 4 4 3 2 2 3 3 4 4 5 6 6 5 4 3 3 3 3 4 5 8 7 7 7 8 9 8 9 9 10 11 11 11 11 11 11 10 10 9 10
12 7 10 11 8 5 1 1 2 -1 -3 2 3 2 3 3 5 3 4 4 5 1 -1 -0 -1 -1 -2 -0 2 1 3 3 3 2 1 1 0 -0 -1 -2 -2 -3 -3 0 2 4 4 3 2 2 2 2 2 2 4 5 7 8 8 7 7 7 7 6 6 6 6 7 7 7 7 9 10 9 9 11 11 11 10 11 10 10 9 9 9 10
12 5 10 9 6 5 6 5 -1 -1 -0 1 3 0 0 1 2 3 1 1 0 -1 -1 -1 -1 -1 -2 0 -2 1 5 5 3 1 1 0 0 1 0 -0 -1 -2 -1 1 -0 0 1 1 2 1 1 -1 2 6 6 7 6 8 8 8 9 10 9 7 5 5 6 6 7 9 10 11 10 10 11 11 10 10 9 9 9 9 9 9 9 10
15 10 9 9 9 8 5 4 3 1 1 -6 1 1 1 0 1 0 -0 0 1 -0 -0 0 -0 -1 -2 -3 2 7 6 4 1 -2 -2 -2 -1 0 -0 -1 -0 -2 -2 -3 -2 0 2 3 2 2 4 9 10 10 10 9 9 9 10 10 11 11 8 5 5 6 7 8 10 12 13 13 12 12 11 10 10 9 7 8 8 9 9 8 8 9
12 10 11 10 5 3 1 -1 -1 0 -4 -4 2 2 1 -0 -0 1 -0 1 -0 -1 0 -0 -2 -4 -2 5 7 4 1 -1 -2 -2 -4 -3 -1 -0 -0 -0 -0 -2 -3 -2 1 3 3 4 6 8 10 10 9 8 8 9 9 9 10 10 10 9 7 6 6 7 9 10 10 11 11 12 12 12 11 10 9 8 7 7 7 8 8 8 7 8
12 12 5 5 3 1 -0 -2 0 -3 -6 -2 0 2 4 3 3 3 3 3 2 2 -0 -2 -4 -0 6 6 1 -0 -0 -1 -2 -2 -3 -1 -1 -0 -1 -0 -1 -2 -1 0 4 5 6 8 9 8 6 5 6 6 7 8 7 8 8 8 8 8 7 8 9 10 10 9 10 10 9 9 11 11 11 11 10 9 8 6 7 7 7 7 7 8
11 8 5 4 1 1 -2 -0 -2 -5 -11 -4 4 5 5 5 5 4 3 2 2 2 2 2 3 6 4 2 1 -0 -0 -1 -1 -1 -1 -0 0 -0 -1 -1 -2 -0 3 5 6 6 8 8 5 3 2 2 2 3 3 5 6 7 8 8 9 9 10 11 11 10 9 9 7 7 6 9 12 13 13 12 10 10 7 6 7 7 7 7 7 8
7 7 5 4 1 -1 1 -1 -5 -14 -11 5 5 6 7 6 5 3 2 3 3 2 1 3 4 3 2 1 -0 -0 -0 -0 -0 -0 -1 1 0 -3 -1 -0 -0 1 3 6 6 7 7 6 3 2 2 3 4 6 6 5 7 9 8 10 10 11 12 11 10 8 7 6 5 5 5 7 12 13 13 12 11 10 7 7 7 7 7 7 7 8
6 5 3 2 3 1 -4 -6 -11 -12 -6 6 7 6 7 5 3 1 1 2 1 -0 3 3 3 2 1 0 -0 -0 -1 -0 0 0 1 -1 -2 -0 0 -0 -0 1 4 6 6 6 6 5 5 3 2 5 6 4 3 3 3 5 7 8 9 9 10 9 7 6 5 5 4 5 6 11 13 12 10 8 9 9 8 8 8 7 8 8 7 8
4 5 3 -0 -0 -5 -5 -6 -6 -5 -8 3 -0 5 5 3 2 1 -2 -1 -1 2 3 2 0 -0 0 1 1 0 0 1 -0 0 -1 -1 0 0 -1 -1 -1 2 5 6 5 4 4 4 4 2 3 4 5 3 3 3 4 6 7 6 6 6 6 5 4 5 4 4 5 9 12 11 9 8 8 8 8 9 8 8 7 7 7 7 7 7
2 1 2 1 -2 -1 -5 -7 -7 -8 -11 -6 4 4 3 2 1 1 1 -2 1 0 2 -0 -0 1 2 1 -0 -1 2 3 0 -1 -1 0 2 1 1 1 2 3 5 5 4 4 4 3 4 4 3 3 3 2 4 6 6 6 5 4 5 5 5 4 3 3 6 9 9 8 9 9 8 8 8 9 9 9 8 8 8 7 7 6 7 7
4 2 3 2 -1 -2 -5 -8 -9 -12 -10 0 1 4 2 0 1 1 -0 -4 1 2 1 0 1 2 1 1 -0 2 3 0 -1 1 2 3 2 3 4 4 4 4 4 5 4 3 3 3 4 5 5 4 3 4 6 7 5 5 5 5 5 4 4 3 5 8 7 6 7 9 9 9 9 9 9 9 9 8 8 7 7 7 7 7 7 7
4 5 5 1 -5 -2 -4 -6 -9 -9 -8 -3 2 3 2 1 1 1 -8 -12 -2 2 3 3 3 1 1 0 2 3 2 -0 0 3 3 2 2 2 3 0 2 5 6 5 4 4 4 5 6 7 6 4 5 7 6 5 4 5 4 4 4 3 4 5 7 7 6 7 7 8 9 9 9 8 7 7 6 7 7 7 6 6 6 6 6 7
3 3 4 -1 -2 -2 -3 -5 -5 -5 -1 1 1 4 2 2 1 -5 -13 -8 3 4 4 3 2 1 1 2 4 2 4 5 5 5 3 2 1 -1 -2 2 5 5 4 3 3 8 5 6 7 5 4 6 6 5 4 4 4 4 4 3 3 3 5 6 6 6 7 7 8 9 8 7 6 7 7 7 7 7 7 6 6 6 5 5 6 6
3 2 3 -0 -4 -4 -4 -5 -6 -5 -2 4 5 3 2 -0 -7 -9 -1 5 4 4 3 2 2 2 2 4 4 5 6 6 5 3 2 3 -0 -2 0 3 1 0 1 2 4 5 6 6 4 5 5 5 4 3 3 4 4 3 3 3 3 4 6 6 6 7 8 8 6 6 6 6 7 7 7 7 7 5 5 5 5 5 5 5 5 5
2 -1 -1 -3 -3 -1 -5 -6 -8 -17 -9 7 6 3 1 -3 -2 4 4 4 3 3 2 3 3 3 4 5 5 6 6 5 4 4 4 1 0 2 3 1 -0 -1 -1 -0 3 6 6 5 5 4 4 3 2 2 4 4 2 2 3 3 3 5 6 7 8 7 5 4 4 4 4 5 5 5 5 5 5 4 4 4 4 4 4 4 5 5
5 -1 -1 -2 0 -4 -5 -11 -13 -8 3 7 3 -1 1 3 5 3 1 2 3 2 2 3 3 4 5 6 6 6 5 3 3 3 3 2 2 4 2 -0 -1 0 1 4 5 4 6 4 3 2 2 1 3 4 4 3 2 3 3 3 5 6 7 8 5 4 3 2 2 3 3 3 4 4 4 4 4 3 3 2 3 3 4 4 4 5
5 1 3 1 5 -0 -3 -3 1 5 6 2 -1 0 3 1 0 0 1 2 2 1 2 3 4 4 5 6 6 5 3 2 2 3 3 2 4 3 0 -0 1 1 2 3 3 4 4 3 2 1 1 2 3 3 2 3 3 3 3 4 5 6 7 4 3 2 1 1 1 1 1 2 2 2 3 3 4 3 3 2 3 2 3 4 4 4
5 6 7 5 5 5 4 4 5 3 -0 -1 -0 -2 -2 -1 -0 0 1 1 2 2 3 4 4 4 5 6 4 2 2 3 3 3 3 5 3 1 1 1 1 1 2 3 3 3 2 2 1 1 2 2 1 1 2 3 3 3 3 5 7 6 4 3 1 1 1 0 -0 -0 0 1 1 1 2 2 2 2 2 2 3 2 3 3 3 3
5 5 3 3 3 2 -2 -3 -3 -2 -1 -1 -3 -1 1 0 -1 -0 1 2 2 3 4 4 3 3 4 3 2 2 2 5 4 4 5 3 1 1 1 1 1 3 3 2 1 2 1 1 1 2 2 -1 -1 0 1 2 3 3 5 5 4 4 4 2 2 1 -0 -1 -1 -1 -0 0 0 0 0 0 1 1 1 1 1 1 2 2 2 2
3 6 4 5 4 1 -2 -3 -1 1 -1 1 2 1 -0 -1 -1 1 3 3 3 5 4 4 3 4 3 1 1 2 4 5 4 4 3 1 1 1 2 2 2 3 2 1 -0 1 1 1 1 1 -0 -1 -1 -0 1 2 2 4 5 3 3 3 3 2 1 -0 -1 -2 -2 -1 -1 -1 -0 -1 -2 -2 -1 -0 -0 0 1 1 0 1 1 1
6 10 4 2 0 1 1 1 -1 3 5 5 3 1 -1 -2 -0 1 2 3 3 4 5 3 3 3 3 1 1 3 3 3 4 3 2 1 2 2 2 3 3 2 0 -1 -0 2 1 1 1 0 -1 -1 -0 0 1 1 2 4 3 3 2 2 1 1 1 -0 -2 -2 -2 -2 -1 -1 -2 -2 -2 -2 -1 -1 -0 -0 -0 0 1 1 2 2
8 7 7 4 2 -0 -1 1 5 4 3 5 3 -1 -2 -1 1 2 2 3 3 4 4 3 3 3 2 2 2 4 3 3 3 2 2 2 2 1 2 3 2 -0 -1 -1 1 0 0 0 0 -1 -1 -1 -0 0 1 1 2 3 3 2 2 1 -1 -2 -1 -2 -3 -3 -3 -3 -2 -2 -2 -2 -2 -2 -2 -2 -1 1 1 1 0 1 4 5
6 6 3 3 1 -1 2 5 8 9 6 4 1 -1 -1 0 2 3 3 3 3 3 4 5 5 3 2 2 3 3 4 3 3 3 2 2 1 2 3 2 -0 -1 -1 -0 0 -1 -1 -1 -1 -1 -1 -1 0 0 1 1 2 3 2 2 2 0 -1 -2 -4 -4 -4 -3 -4 -3 -3 -3 -3 -3 -3 -3 -2 -2 -2 -3 -1 2 3 2 3 3